Flag for U.S.A. Weather past 2 weeks in Olympia, Washington, U.S.A.

Now
68 °F

Sunny.


Feels Like: 68 °F
Forecast: 41 / 70 °F
Wind: 12 mph from Northeast

Location: Olympia Airport

Current Time: Apr 19, 2015 at 2:26:03 PM

Latest Report: Apr 19, 2015 at 1:54 PM


Visibility: 10 mi

Pressure: 30.11 "Hg

Humidity: 36%

Dew point: 40 °F

Location of OlympiaLocation

Historic Weather in Olympia — Graph

°F

Olympia temperature yesterday

Maximum temperature yesterday: 69 °F (at 3:54 PM)
Minimum temperature yesterday: 42 °F (at 2:54 AM)
Average temperature yesterday: 55 °F

Past Weeks' High & Low Weather Summary

 TemperatureHumidityPressure
High69 °F (Apr 17, 3:54 PM)100% (Apr 5, 6:54 AM)30.56 "Hg (Apr 5, 6:54 AM)
Low27 °F (Apr 15, 5:54 AM)25% (Apr 18, 3:54 PM)29.64 "Hg (Apr 5, 7:54 PM)
Average47 °F73%30.09 "Hg
* Reported Apr 4 12:54 PM — Apr 19 12:54 PM, Olympia, Weather by CustomWeather, © 2015

Note: Actual official high and low records may vary slightly from our data, if they occured in-between our weather recording intervals... More about our weather records

Advertising

Olympia weather history for previous 24 hours

 ConditionsComfort  
Time TempWeatherWind HumidityBarometerVisibility
12:54 PM
Sun, Apr 19
65 °FSunny.10 mph40%30.14 "Hg10 mi
11:54 AM62 °FSunny.10 mph46%30.16 "Hg10 mi
10:54 AM60 °FSunny.10 mph52%30.18 "Hg10 mi
9:54 AM55 °FSunny.8 mph64%30.19 "Hg10 mi
8:54 AM52 °FSunny.6 mph72%30.20 "Hg10 mi
7:54 AM43 °FSunny.No wind86%30.21 "Hg10 mi
6:54 AM35 °FClear.No wind92%30.22 "Hg10 mi
5:54 AM37 °FClear.No wind89%30.21 "Hg10 mi
4:54 AM36 °FClear.No wind92%30.22 "Hg10 mi
3:54 AM38 °FClear.No wind90%30.22 "Hg10 mi
2:54 AM41 °FClear.No wind86%30.23 "Hg10 mi
1:54 AM41 °FClear.No wind86%30.23 "Hg10 mi
12:54 AM44 °FClear.No wind79%30.24 "Hg10 mi
11:54 PM
Sat, Apr 18
46 °FClear.No wind77%30.24 "Hg10 mi
10:54 PM51 °FClear.5 mph61%30.24 "Hg10 mi
9:54 PM55 °FClear.6 mph53%30.24 "Hg10 mi
8:54 PM57 °FSunny.5 mph47%30.24 "Hg10 mi
7:54 PM61 °FSunny.6 mph41%30.23 "Hg10 mi
6:54 PM65 °FSunny.8 mph33%30.24 "Hg10 mi
5:54 PM69 °FSunny.10 mph31%30.25 "Hg10 mi
4:54 PM69 °FSunny.12 mph29%30.26 "Hg10 mi
3:54 PM69 °FSunny.12 mph25%30.28 "Hg10 mi
2:54 PM67 °FSunny.12 mph35%30.30 "Hg10 mi
Weather by CustomWeather, © 2015

See weather overviewHow to use our weather pages